Winfield, KS

7:43 PM CDT on May 26, 2017 (GMT -0500)
Strother

Weather History for KWLD - May, 2013

Change the Weather History Date:

Friday, May 3, 2013

  Actual Average Record
Temperature  
Mean Temperature 44 °F -  
Max Temperature 60 °F 73 °F 90 °F (2014)
Min Temperature 30 °F 50 °F 30 °F (2013)
Degree Days  
Heating Degree Days 20    
Moisture  
Dew Point 31 °F    
Average Humidity 63    
Maximum Humidity 92    
Minimum Humidity 34    
Precipitation  
Precipitation 0.00 in - - ()
Sea Level Pressure  
Sea Level Pressure 30.19 in    
Wind  
Wind Speed 10 mph (NNW)    
Max Wind Speed 23 mph    
Max Gust Speed 33 mph    
Visibility 10 miles    
Events      
Averages and records for this station are not official NWS values.
T = Trace of Precipitation, MM = Missing Value Source: NWS Daily Summary

Daily Weather History Graph

Daily Weather History Graph

Search for Another Location

Airport or City:

Trip Planner

Search our weather history database for the weather conditions in past years. The results will help you decide how hot, cold, wet, or windy it might be!

Date:

Astronomy

May. 03, 2013 Rise Set
Actual Time 6:31 AM CDT 8:19 PM CDT
Civil Twilight 6:02 AM CDT 8:47 PM CDT
Nautical Twilight 5:28 AM CDT 9:21 PM CDT
Astronomical Twilight 4:52 AM CDT 9:58 PM CDT
Moon 2:47 AM CDT (5/3) 2:23 PM CDT (5/3)
Length of Visible Light 14h 44m
Length of Day
13h 48m
Last Quarter, 37% of the Moon is Illuminated
May 3
Last Quarter
May 9
New
May 17
First Quarter
May 24
Full
May 31
Last Quarter

Hourly Weather History & Observations

Time (CDT) Temp. Windchill Dew Point Humidity Pressure Visibility Wind Dir Wind Speed Gust Speed Precip Events Conditions
12:54 AM 33.1 °F 28.7 °F 30.0 °F 89% 30.40 in 10.0 mi NW 4.6 mph - N/A   Overcast
1:54 AM 33.1 °F 27.7 °F 30.0 °F 89% 30.37 in 10.0 mi NW 5.8 mph - N/A   Mostly Cloudy
2:54 AM 33.1 °F 28.7 °F 30.0 °F 89% 30.34 in 10.0 mi WNW 4.6 mph - N/A   Clear
3:54 AM 32.0 °F 28.7 °F 30.0 °F 92% 30.33 in 10.0 mi North 3.5 mph - N/A   Clear
4:54 AM 30.0 °F 23.2 °F 28.0 °F 92% 30.32 in 10.0 mi NW 6.9 mph - N/A   Clear
5:54 AM 32.0 °F 25.6 °F 30.0 °F 92% 30.31 in 10.0 mi NW 6.9 mph - N/A   Clear
6:54 AM 32.0 °F 25.6 °F 28.9 °F 88% 30.30 in 10.0 mi NW 6.9 mph - N/A   Clear
7:54 AM 37.9 °F 32.1 °F 34.0 °F 86% 30.29 in 10.0 mi NNW 8.1 mph - N/A   Clear
8:54 AM 43.0 °F 35.7 °F 35.1 °F 74% 30.29 in 10.0 mi NNW 15.0 mph - N/A   Clear
9:54 AM 46.9 °F - 30.9 °F 54% 30.27 in 10.0 mi NNW 18.4 mph - N/A   Clear
10:54 AM 51.1 °F - 32.0 °F 48% 30.25 in 10.0 mi NNW 19.6 mph 24.2 mph N/A   Clear
11:54 AM 53.1 °F - 30.9 °F 43% 30.23 in 10.0 mi NNW 21.9 mph 27.6 mph N/A   Clear
12:54 PM 55.9 °F - 33.1 °F 42% 30.18 in 10.0 mi NW 20.7 mph 28.8 mph N/A   Clear
1:54 PM 57.0 °F - 32.0 °F 39% 30.15 in 10.0 mi NNW 23.0 mph 32.2 mph N/A   Clear
2:54 PM 59.0 °F - 32.0 °F 36% 30.13 in 10.0 mi NNW 23.0 mph 33.4 mph N/A   Scattered Clouds
3:54 PM 57.0 °F - 28.9 °F 34% 30.10 in 10.0 mi NNW 19.6 mph 29.9 mph N/A   Scattered Clouds
4:54 PM 57.0 °F - 30.0 °F 36% 30.07 in 10.0 mi North 23.0 mph 28.8 mph N/A   Partly Cloudy
5:54 PM 55.0 °F - 28.9 °F 37% 30.06 in 10.0 mi NNW 18.4 mph 26.5 mph N/A   Partly Cloudy
6:54 PM 55.9 °F - 30.0 °F 37% 30.04 in 10.0 mi NNW 15.0 mph - N/A   Scattered Clouds
7:54 PM 52.0 °F - 30.9 °F 45% 30.04 in 10.0 mi North 10.4 mph - N/A   Clear
8:54 PM 46.9 °F - 32.0 °F 56% 30.03 in 10.0 mi North 6.9 mph - N/A   Clear
9:54 PM 44.1 °F 40.8 °F 34.0 °F 68% 30.04 in 10.0 mi NNW 5.8 mph - N/A   Clear
10:54 PM 44.1 °F 40.1 °F 34.0 °F 68% 30.03 in 10.0 mi NW 6.9 mph - N/A   Clear
11:54 PM 42.1 °F 37.7 °F 33.1 °F 70% 30.01 in 10.0 mi NW 6.9 mph - N/A   Scattered Clouds